EW0402 Weather Reports


time (UTC)temp
F
wind
direction
speed
knots
gust
knots
rain 1hr
in
rain 24hr
in
rain mn
in
humidity
%
barometer
mb
20260506194602 86 306 0.0 1.7 0.00 0.00 0.00 63 1016.9
20260506193059 86 314 0.9 6.1 0.00 0.00 0.00 63 1017.0
20260506191558 86 36 0.9 6.1 0.00 0.00 0.00 64 1017.1
20260506190101 86 288 0.9 3.5 0.00 0.00 0.00 62 1017.2
20260506184601 87 311 1.7 6.1 0.00 0.00 0.00 63 1017.2
20260506183103 86 292 0.9 8.7 0.00 0.00 0.00 61 1017.4
20260506181620 87 350 2.6 7.0 0.00 0.00 0.00 60 1017.6
20260506180054 87 295 1.7 6.1 0.00 0.00 0.00 62 1017.7
20260506174554 87 312 0.9 3.5 0.00 0.00 0.00 61 1017.8
20260506173100 87 302 0.9 3.5 0.00 0.00 0.00 60 1018.1
20260506171549 86 360 0.9 4.3 0.00 0.00 0.00 61 1018.4
20260506170052 86 285 1.7 7.8 0.00 0.00 0.00 59 1018.4
20260506164548 87 279 1.7 5.2 0.00 0.00 0.00 61 1018.5
20260506163045 86 346 0.9 3.5 0.00 0.00 0.00 62 1018.6
20260506161540 85 167 0.9 6.1 0.00 0.00 0.00 65 1018.6
20260506160037 84 325 0.9 3.5 0.00 0.00 0.00 69 1018.6
20260506154533 82 349 0.9 5.2 0.00 0.00 0.00 71 1018.7
20260506153030 81 305 0.9 7.0 0.00 0.00 0.00 69 1018.5
20260506151525 80 16 0.0 8.7 0.00 0.00 0.00 71 1018.2
20260506150022 80 306 0.9 4.3 0.00 0.00 0.00 72 1018.0
20260506144522 80 349 0.9 7.8 0.00 0.00 0.00 71 1017.8
20260506143016 79 112 0.9 4.3 0.00 0.00 0.00 77 1017.6
20260506141513 77 241 0.9 5.2 0.00 0.00 0.00 80 1017.5
20260506140009 76 337 0.9 5.2 0.00 0.00 0.00 86 1017.2
20260506134504 74 311 1.7 7.0 0.00 0.00 0.00 89 1017.2
20260506133059 73 269 0.0 2.6 0.00 0.00 0.00 94 1017.1
20260506131556 71 281 0.0 2.6 0.00 0.00 0.00 96 1017.2
20260506130051 70 246 0.0 1.7 0.00 0.00 0.00 97 1017.3
20260506124550 69 32 0.9 2.6 0.00 0.00 0.00 97 1017.2
20260506123044 68 275 0.0 2.6 0.00 0.00 0.00 97 1017.0
20260506121541 68 285 0.0 1.7 0.00 0.00 0.00 97 1016.8
20260506120041 67 275 0.0 1.7 0.00 0.00 0.00 97 1016.7
20260506114536 67 256 0.0 1.7 0.00 0.00 0.00 97 1016.5
20260506113040 66 290 0.0 1.7 0.00 0.00 0.00 97 1016.3
20260506111532 66 284 0.0 1.7 0.00 0.00 0.00 97 1016.2
20260506110030 66 340 0.0 2.6 0.00 0.00 0.00 96 1016.1
20260506104533 66 326 0.9 3.5 0.00 0.00 0.00 96 1015.9
20260506103029 66 304 0.0 3.5 0.00 0.00 0.00 96 1016.0
20260506101528 66 319 0.9 2.6 0.00 0.00 0.00 96 1015.8
20260506100027 66 319 0.0 2.6 0.00 0.00 0.00 96 1016.1
20260506094527 66 313 0.9 3.5 0.00 0.00 0.00 95 1016.2
20260506093025 66 268 0.0 0.9 0.00 0.00 0.00 95 1016.1
20260506091524 66 250 0.0 1.7 0.00 0.00 0.00 95 1015.9
20260506090024 66 246 0.0 1.7 0.00 0.00 0.00 95 1015.8
20260506084523 66 218 0.0 0.9 0.00 0.00 0.00 95 1015.7
20260506083023 66 256 0.0 2.6 0.00 0.00 0.00 94 1015.7
20260506081521 65 235 0.0 0.9 0.00 0.00 0.00 94 1015.7
20260506073019 65 234 0.0 0.9 0.00 0.00 0.00 93 1016.0
20260506071519 65 234 0.0 0.9 0.00 0.00 0.00 93 1016.0
20260506061513 65 234 0.0 0.0 0.00 0.00 0.00 92 1016.2
20260506044600 66 234 0.0 0.0 0.00 0.00 0.00 87 1017.0
20260506043101 67 234 0.0 0.0 0.00 0.00 0.00 86 1017.1
20260506041601 67 234 0.0 0.0 0.00 0.00 0.00 85 1017.1
20260506040055 68 234 0.0 0.0 0.00 0.00 0.00 84 1017.2
20260506034613 68 234 0.0 0.9 0.00 0.00 0.00 83 1017.1
20260506033054 68 234 0.0 0.9 0.00 0.00 0.00 82 1017.1
20260506031601 69 234 0.0 0.9 0.00 0.00 0.00 80 1017.0
20260506030053 69 234 0.0 0.9 0.00 0.00 0.00 80 1017.2
20260506024612 70 234 0.0 0.9 0.00 0.00 0.00 79 1017.1
20260506023052 70 234 0.0 0.9 0.00 0.00 0.00 78 1016.9
20260506021553 71 234 0.0 0.9 0.00 0.00 0.00 77 1016.7
20260506020052 71 234 0.0 0.9 0.00 0.00 0.00 77 1016.5
20260506014552 71 234 0.0 0.9 0.00 0.00 0.00 76 1016.4
20260506013103 72 234 0.0 0.9 0.00 0.00 0.00 75 1016.2
20260506011604 72 234 0.0 0.9 0.00 0.00 0.00 74 1016.4
20260506010052 73 234 0.0 0.0 0.00 0.00 0.00 73 1016.2
20260506004549 74 234 0.0 0.9 0.00 0.00 0.00 71 1016.1
20260506003049 75 234 0.0 0.0 0.00 0.00 0.00 69 1016.0
20260506001548 75 234 0.0 0.9 0.00 0.00 0.00 68 1016.0
20260506000051 76 234 0.0 1.7 0.00 0.00 0.00 67 1016.0
20260505234548 77 233 0.0 1.7 0.00 0.00 0.00 66 1015.8
20260505233046 78 360 0.0 2.6 0.00 0.00 0.00 64 1015.8
20260505231547 78 323 0.9 2.6 0.00 0.00 0.00 64 1015.9
20260505230056 79 329 0.0 3.5 0.00 0.00 0.00 63 1015.9
20260505224547 80 284 2.6 7.8 0.00 0.00 0.00 62 1015.6
20260505223055 80 5 0.9 5.2 0.00 0.00 0.00 61 1015.5
20260505221544 81 205 0.9 8.7 0.00 0.00 0.00 60 1015.6
20260505220044 82 260 1.7 3.5 0.00 0.00 0.00 58 1015.7
20260505214542 82 314 1.7 11.3 0.00 0.00 0.00 58 1015.9
20260505213053 82 339 0.9 4.3 0.00 0.00 0.00 57 1015.8
20260505211541 83 46 1.7 6.1 0.00 0.00 0.00 54 1015.7
20260505210040 84 348 1.7 7.0 0.00 0.00 0.00 53 1015.6
20260505204540 85 295 0.9 3.5 0.00 0.00 0.00 50 1015.6
20260505203045 85 261 0.9 3.5 0.00 0.00 0.00 53 1015.8
20260505201537 84 251 0.9 3.5 0.00 0.00 0.00 51 1016.1